User: anonymous   Login
Location: PACMO
(41.3967°N, 90.3760°W)
Time: 13:02:30
(UTC-05:00)
Language:

BREEZE-M DEB (TANK) - Orbit

View from above orbital plane
View from above orbital plane
View from above satellite
View from above satellite

Ground track
Ground track

The orbit data is extracted from the following two-line orbital elements,

1 31863U 07032B   16147.48807407 -.00000068  00000-0  12324-4 0  9991
2 31863  45.9493 313.7551 4986221  25.2412 352.5274  5.51962733178173
Epoch (UTC): 26 May 2016 11:42:49
Eccentricity: 0.4986221
inclination: 45.9493°
perigee height: 403 km
apogee height: 13890 km
right ascension of ascending node: 313.7551°
argument of perigee: 25.2412°
revolutions per day: 5.51962733
mean anomaly at epoch: 352.5274°
orbit number at epoch: 17817

The dashed part of the orbit path shows where the satellite is in the earth's shadow,  

DLR